Hourly Weather Alikanas

Today, 5 December, Saturday

Time Temperature Precipitation Wind Pressure Humidity
00:00 +15°C° 0 mm 4 mps 759 mmHg 64%
01:00 +17°C° 0 mm 4 mps 759 mmHg 62%
02:00 +16°C° 0 mm 3 mps 759 mmHg 61%
03:00 +16°C° 0 mm 3 mps 759 mmHg 60%
04:00 +16°C° 0 mm 3 mps 759 mmHg 59%
05:00 +16°C° 0 mm 3 mps 759 mmHg 61%
06:00 +15°C° 0 mm 4 mps 759 mmHg 63%
07:00 +15°C° 0 mm 4 mps 759 mmHg 64%
08:00 +17°C° 0 mm 4 mps 760 mmHg 63%
09:00 +18°C° 0 mm 4 mps 760 mmHg 63%
10:00 +18°C° 0 mm 4 mps 760 mmHg 62%
11:00 +19°C° 0 mm 4 mps 760 mmHg 62%
12:00 +19°C° 0 mm 4 mps 760 mmHg 62%
13:00 +19°C° 0 mm 4 mps 760 mmHg 62%
14:00 +18°C° 0 mm 4 mps 760 mmHg 63%
15:00 +18°C° 0 mm 4 mps 760 mmHg 65%
16:00 +18°C° 0 mm 4 mps 760 mmHg 67%
17:00 +17°C° 0 mm 5 mps 760 mmHg 68%
18:00 +16°C° 0 mm 5 mps 760 mmHg 68%
19:00 +16°C° 0 mm 5 mps 760 mmHg 69%
20:00 +16°C° 0 mm 6 mps 760 mmHg 71%
21:00 +16°C° 0 mm 6 mps 760 mmHg 74%
22:00 +16°C° 0 mm 6 mps 760 mmHg 76%
23:00 +16°C° 0 mm 6 mps 760 mmHg 76%

Tomorrow, 6 December, Sunday

Time Temperature Precipitation Wind Pressure Humidity
00:00 +16°C° 0 mm 7 mps 760 mmHg 76%
01:00 +16°C° 0 mm 7 mps 760 mmHg 76%
02:00 +16°C° 0.1 mm 7 mps 760 mmHg 76%
03:00 +16°C° 0.1 mm 7 mps 759 mmHg 76%
04:00 +16°C° 0.1 mm 7 mps 759 mmHg 76%
05:00 +15°C° 0 mm 7 mps 759 mmHg 76%
06:00 +15°C° 0 mm 7 mps 759 mmHg 75%
07:00 +15°C° 0 mm 7 mps 758 mmHg 75%
08:00 +16°C° 0 mm 8 mps 758 mmHg 72%
09:00 +17°C° 0 mm 8 mps 758 mmHg 70%
10:00 +18°C° 0 mm 9 mps 758 mmHg 67%
11:00 +18°C° 0 mm 10 mps 757 mmHg 67%
12:00 +18°C° 0 mm 10 mps 756 mmHg 66%
13:00 +19°C° 0 mm 10 mps 756 mmHg 66%
14:00 +18°C° 0 mm 10 mps 755 mmHg 65%
15:00 +18°C° 0 mm 10 mps 755 mmHg 65%
16:00 +18°C° 0 mm 10 mps 755 mmHg 64%
17:00 +18°C° 0 mm 10 mps 755 mmHg 65%
18:00 +18°C° 0 mm 10 mps 754 mmHg 66%
19:00 +18°C° 0 mm 10 mps 754 mmHg 68%
20:00 +18°C° 0.2 mm 11 mps 755 mmHg 69%
21:00 +18°C° 0.2 mm 12 mps 755 mmHg 70%
22:00 +18°C° 0.2 mm 13 mps 755 mmHg 71%
23:00 +17°C° 3.6 mm 13 mps 754 mmHg 70%

Day after tomorrow, 7 December, Monday

Time Temperature Precipitation Wind Pressure Humidity
00:00 +17°C° 3.6 mm 13 mps 754 mmHg 70%
01:00 +15°C° 3.6 mm 12 mps 754 mmHg 69%
02:00 +16°C° 0.5 mm 11 mps 754 mmHg 68%
03:00 +14°C° 0.5 mm 10 mps 755 mmHg 68%
04:00 +15°C° 0.5 mm 9 mps 755 mmHg 67%
05:00 +15°C° 0.1 mm 8 mps 756 mmHg 68%
06:00 +15°C° 0.1 mm 8 mps 756 mmHg 69%
07:00 +15°C° 0.1 mm 7 mps 756 mmHg 69%
08:00 +15°C° 0 mm 7 mps 757 mmHg 68%
09:00 +16°C° 0 mm 7 mps 757 mmHg 67%
10:00 +16°C° 0 mm 7 mps 757 mmHg 66%
11:00 +16°C° 0.3 mm 7 mps 757 mmHg 66%
12:00 +16°C° 0.3 mm 7 mps 757 mmHg 67%
13:00 +16°C° 0.3 mm 8 mps 757 mmHg 68%
14:00 +16°C° 0.2 mm 7 mps 757 mmHg 67%
15:00 +16°C° 0.2 mm 7 mps 758 mmHg 66%
16:00 +16°C° 0.2 mm 7 mps 758 mmHg 65%
17:00 +16°C° 0.2 mm 6 mps 758 mmHg 66%
18:00 +15°C° 0.2 mm 6 mps 758 mmHg 66%
19:00 +15°C° 0.2 mm 5 mps 759 mmHg 67%
20:00 +15°C° 0.4 mm 6 mps 759 mmHg 68%
21:00 +15°C° 0.4 mm 6 mps 759 mmHg 70%
22:00 +15°C° 0.4 mm 6 mps 759 mmHg 71%
23:00 +15°C° 0.6 mm 6 mps 759 mmHg 70%

8 December, Tuesday

Time Temperature Precipitation Wind Pressure Humidity
00:00 +15°C° 0.6 mm 6 mps 759 mmHg 69%
01:00 +15°C° 0.6 mm 6 mps 758 mmHg 68%
02:00 +15°C° 0.2 mm 6 mps 758 mmHg 68%
03:00 +15°C° 0.2 mm 6 mps 758 mmHg 67%
04:00 +15°C° 0.2 mm 5 mps 758 mmHg 67%
05:00 +15°C° 0.2 mm 5 mps 758 mmHg 66%
06:00 +15°C° 0.2 mm 4 mps 759 mmHg 65%
07:00 +15°C° 0.2 mm 4 mps 759 mmHg 64%
08:00 +15°C° 0.2 mm 4 mps 759 mmHg 62%
09:00 +17°C° 0.2 mm 4 mps 759 mmHg 61%
10:00 +18°C° 0.2 mm 4 mps 759 mmHg 59%
11:00 +18°C° 0.4 mm 4 mps 759 mmHg 61%
12:00 +18°C° 0.4 mm 4 mps 759 mmHg 62%
13:00 +18°C° 0.4 mm 4 mps 758 mmHg 63%
14:00 +16°C° 0.3 mm 5 mps 758 mmHg 66%
15:00 +16°C° 0.3 mm 6 mps 758 mmHg 68%
16:00 +15°C° 0.3 mm 6 mps 758 mmHg 71%
17:00 +16°C° 0.4 mm 7 mps 758 mmHg 72%
18:00 +16°C° 0.4 mm 8 mps 758 mmHg 72%
19:00 +16°C° 0.4 mm 8 mps 758 mmHg 73%
20:00 +16°C° 0.6 mm 9 mps 758 mmHg 73%
21:00 +16°C° 0.6 mm 10 mps 758 mmHg 74%
22:00 +16°C° 0.6 mm 11 mps 758 mmHg 75%
23:00 +16°C° 1.9 mm 11 mps 758 mmHg 78%

9 December, Wednesday

Time Temperature Precipitation Wind Pressure Humidity
00:00 +16°C° 1.9 mm 11 mps 758 mmHg 81%
01:00 +15°C° 1.9 mm 12 mps 757 mmHg 84%
02:00 +16°C° 0.8 mm 10 mps 757 mmHg 81%
03:00 +16°C° 0.8 mm 9 mps 757 mmHg 78%
04:00 +16°C° 0.8 mm 8 mps 757 mmHg 75%
05:00 +16°C° 0.6 mm 8 mps 757 mmHg 76%
06:00 +16°C° 0.6 mm 8 mps 757 mmHg 76%
07:00 +16°C° 0.6 mm 7 mps 758 mmHg 77%
08:00 +16°C° 0.4 mm 7 mps 758 mmHg 74%
09:00 +17°C° 0.4 mm 7 mps 758 mmHg 72%
10:00 +17°C° 0.4 mm 7 mps 759 mmHg 70%
11:00 +17°C° 0.6 mm 7 mps 758 mmHg 72%
12:00 +17°C° 0.6 mm 8 mps 758 mmHg 74%
13:00 +17°C° 0.6 mm 8 mps 757 mmHg 77%
14:00 +17°C° 1.1 mm 9 mps 757 mmHg 77%
15:00 +17°C° 1.1 mm 9 mps 757 mmHg 77%
16:00 +17°C° 1.1 mm 10 mps 757 mmHg 77%
17:00 +17°C° 0.7 mm 10 mps 757 mmHg 77%
18:00 +17°C° 0.7 mm 10 mps 756 mmHg 76%
19:00 +17°C° 0.7 mm 9 mps 756 mmHg 76%
20:00 +17°C° 1.6 mm 10 mps 756 mmHg 77%
21:00 +17°C° 1.6 mm 11 mps 756 mmHg 77%
22:00 +17°C° 1.6 mm 12 mps 755 mmHg 78%
23:00 +17°C° 0.8 mm 13 mps 755 mmHg 77%

10 December, Thursday

Time Temperature Precipitation Wind Pressure Humidity
00:00 +17°C° 0.8 mm 14 mps 754 mmHg 75%
01:00 +17°C° 0.8 mm 15 mps 753 mmHg 74%
02:00 +15°C° 1.1 mm 15 mps 752 mmHg 79%
03:00 +14°C° 1.1 mm 16 mps 752 mmHg 84%
04:00 +13°C° 1.1 mm 17 mps 751 mmHg 89%
05:00 +13°C° 1.1 mm 15 mps 751 mmHg 89%
06:00 +13°C° 1.1 mm 14 mps 751 mmHg 89%
07:00 +13°C° 1.1 mm 13 mps 751 mmHg 89%
08:00 +13°C° 1.1 mm 12 mps 751 mmHg 82%
09:00 +13°C° 1.1 mm 12 mps 752 mmHg 76%
10:00 +13°C° 1.1 mm 11 mps 753 mmHg 69%
11:00 +13°C° 1 mm 11 mps 753 mmHg 70%
12:00 +13°C° 1 mm 10 mps 753 mmHg 71%
13:00 +13°C° 1 mm 10 mps 753 mmHg 72%
14:00 +13°C° 0.6 mm 10 mps 754 mmHg 71%
15:00 +13°C° 0.6 mm 10 mps 754 mmHg 70%
16:00 +13°C° 0.6 mm 11 mps 754 mmHg 70%
17:00 +13°C° 0.3 mm 10 mps 755 mmHg 69%
18:00 +13°C° 0.3 mm 9 mps 755 mmHg 69%
19:00 +13°C° 0.3 mm 8 mps 755 mmHg 68%
20:00 +13°C° 0.3 mm 8 mps 755 mmHg 68%
21:00 +14°C° 0.3 mm 7 mps 756 mmHg 67%
22:00 +14°C° 0.3 mm 7 mps 756 mmHg 66%
23:00 +14°C° 0.1 mm 7 mps 756 mmHg 65%
Show more

We Need Your Consent

Meteoprog and our Service Providers may store and access personal data such as cookies, device identifiers or other similar technologies on your device and process such data to personalise content and ads, as well as provide social media features and to analyse the traffic.

  • Store and/or access information on your device

    Cookies, device identifiers or other information can be stored or accessed on your device for the purposes indicated above.

  • Personalised ads and content, ad and content measurement, audience insights, and products development

    Ads and content can be personalised based on a profile. More data can be added to better personalise ads and content. Ad and content performance can be measured. Insights about the audience who saw the ads and content can be derived. Such data can be used to develop or improve user’s experience, systems and software.

By clicking ‘I Agree’ you will allow the use of indicated cookies, device identifiers, web beacons or other similar technologies. Your settings can be changed in the browser on your device.

For certain purposes, legitimate interests may be relied on, rather than consent. You can read more about this in our Privacy and Cookie Policy.